[Iaude] MPEC R60: 2023 RO1 [a=1.19,e=0.43,i=3.3,H=26.1]
    mpec at marsden.cfa.harvard.edu 
    mpec at marsden.cfa.harvard.edu
       
    Fri Sep  8 17:04:55 EDT 2023
    
    
  
M.P.E.C. 2023-R60                             Issued 2023 September 8, 21:03 UT
     The Minor Planet Electronic Circulars contain information on unusual
         minor planets, routine data on comets and natural satellites,
         and occasional editorial announcements.  They are published
    on behalf of Division F of the International Astronomical Union by the
          Minor Planet Center, Smithsonian Astrophysical Observatory,
                          Cambridge, MA 02138, U.S.A.
			  
             Prepared using the Tamkin Foundation Computer Network
                              MPC at CFA.HARVARD.EDU
            URL https://www.minorplanetcenter.net/    ISSN 1523-6714
                                    2023 RO1                                    
Observations:
     K23R01O*KC2023 09 07.86370 21 27 12.92 +12 56 42.9          19.9 GXER060L51
     K23R01O KC2023 09 07.86536 21 27 10.67 +12 56 51.9          20.0 GXER060L51
     K23R01O KC2023 09 07.86693 21 27 08.64 +12 57 00.6          19.8 GXER060L51
     K23R01O 1C2023 09 07.90683421 26 19.150+13 00 31.10               VER060246
     K23R01O 1C2023 09 07.90709521 26 18.810+13 00 32.50               VER060246
     K23R01O 1C2023 09 07.90735521 26 18.420+13 00 34.20               VER060246
     K23R01O 1C2023 09 07.91155 21 26 13.28 +13 00 51.6          20.2 VXER060033
     K23R01O 1C2023 09 07.91201 21 26 12.68 +13 00 54.4          19.0 VXER060033
     K23R01O 1C2023 09 07.91247 21 26 12.08 +13 00 56.8          19.3 VXER060033
     K23R01O 1C2023 09 07.91301 21 26 11.33 +13 00 59.7          19.9 VXER060033
     K23R01O KC2023 09 07.91381 21 26 05.68 +13 01 21.9          19.8 GXER060L51
     K23R01O KC2023 09 07.91589 21 26 02.86 +13 01 33.6          19.8 GXER060L51
     K23R01O KC2023 09 07.91795 21 26 00.10 +13 01 45.4          20.1 GXER060L51
     K23R01O KC2023 09 07.99053321 24 25.53 +13 08 38.4                VER060204
     K23R01O pC2023 09 07.99264321 24 21.69 +13 08 50.2          20.1 GVER060L01
     K23R01O IC2023 09 07.99412721 24 19.58 +13 08 59.8          20.3 GVER060L01
     K23R01O IC2023 09 07.99561221 24 17.57 +13 09 06.9          20.2 GVER060L01
     K23R01O pC2023 09 07.99710021 24 15.53 +13 09 15.6          20.3 GVER060L01
     K23R01O KC2023 09 07.99773321 24 15.56 +13 09 19.1          20.0 GVER060204
     K23R01O KC2023 09 07.99858821 24 13.42 +13 09 24.2          20.2 GVER060L01
     K23R01O KC2023 09 08.00457321 24 06.07 +13 09 58.0                VER060204
     K23R01O KB2023 09 08.02343421 23 41.20 +13 11 54.1          19.3 GVER060I93
     K23R01O KB2023 09 08.02589021 23 37.71 +13 12 08.0          20.5 GVER060I93
     K23R01O KB2023 09 08.02878521 23 33.69 +13 12 24.7          20.2 GVER060I93
     K23R01O KC2023 09 08.74603 21 05 23.97 +14 30 10.5          20.2 GXER060L51
     K23R01O KC2023 09 08.74914 21 05 18.20 +14 30 32.7          20.0 GXER060L51
     K23R01O KC2023 09 08.75223 21 05 12.43 +14 30 55.3          20.1 GXER060L51
     K23R01O 1C2023 09 08.79496521 03 56.640+14 35 45.60               VER060246
     K23R01O 1C2023 09 08.79522621 03 56.110+14 35 47.20               VER060246
     K23R01O 1C2023 09 08.83233 21 02 46.20 +14 40 12.5          20.4 VXER060033
     K23R01O 1C2023 09 08.83273 21 02 45.44 +14 40 15.5          20.2 VXER060033
     K23R01O 1C2023 09 08.83313 21 02 44.67 +14 40 18.5          20.4 VXER060033
Observer details:
033 Karl Schwarzschild Observatory, Tautenburg.  Observers S. Melnikov, C.
    Hoegner, F. Ludwig, M. Hartmann, B. Stecklum.  Measurer B. Stecklum.
    1.34-m f/3 Schmidt + CCD.
204 Schiaparelli Observatory.  Observers L. Buzzi, G. Galli.  0.84-m f/3.5
    reflector + CCD.
246 Klet Observatory-KLENOT.  Observers M. Tichy, J. Ticha, M. Janda, M.
    Honkova.  Measurer M. Tichy.  1.06-m f/2.7 Reflector + 2048x2048 CCD.
I93 St Pardon de Conques.  Observer F. Losse.  0.40-m f/3.7 reflector + CMO.
L01 Visnjan Observatory, Tican.  Observer K. Korlevic.  1.0-m f/2.9 reflector
    + CCD.
L51 MARGO, Nauchnyi.  Observer G. Borisov.  0.50-m f/1.9 reflector + CCD.
Orbital elements:
2023 RO1                                                 Earth MOID = 0.0022 AU
Epoch 2023 Sept. 13.0 TT = JDT 2460200.5                Veres                   
M 314.65278              (2000.0)            P               Q                  
n   0.75953728     Peri.  263.66156     +0.11293470     -0.99360240             
a   1.1896978      Node   179.85369     +0.93276680     +0.10596928             
e   0.4340840      Incl.    3.28480     +0.34233296     +0.03904845             
P   1.30           H   26.12          G   0.15           U   9                  
Residuals in seconds of arc
230907 L51  0.2-  0.1+    230907 L51  0.3-  0.0     230908 I93  0.3-  0.0
230907 L51  0.7-  0.1-    230907 L51  0.0   0.3+    230908 I93  0.2+  0.1+
230907 L51  0.2+  0.1-    230907 204  0.1+  0.1+    230908 L51  0.3+  0.3+
230907 246  0.3+  0.9-    230907 L01  0.2+  0.2-    230908 L51  0.0   0.3-
230907 246  0.4+  0.9-    230907 L01  0.6-  1.0+    230908 L51  0.7-  0.2-
230907 246  0.1-  0.7-    230907 L01  0.0   0.3-    230908 246  1.0+  0.5+
230907 033  0.3-  0.0     230907 L01  0.3+  0.0     230908 246  0.4+  0.2+
230907 033  0.0   0.2+    230907 204  0.1+  0.1-    230908 033  0.0   0.1-
230907 033  0.3+  0.0     230907 L01  0.5-  0.1+    230908 033  0.0   0.0
230907 033  0.0   0.2-    230908 204  0.1+  0.1-    230908 033  0.1-  0.0
230907 L51  0.1-  0.1-    230908 I93  0.4+  0.1+
Ephemeris:
2023 RO1                 a,e,i = 1.19, 0.43, 3                   q = 0.6733
Date    TT    R. A. (2000) Decl.     Delta      r    Elong.  Phase     V
2023 08 09    22 55 04.6 +03 17 11   0.2672  1.2491   148.2    25.3    24.9
...
2023 08 24    22 47 39.2 +05 36 21   0.1435  1.1475   160.5    17.1    23.1
...
2023 09 01    22 29 47.6 +07 40 06   0.08367 1.0899   163.6    15.1    21.8
...
2023 09 07    21 42 53.6 +11 46 35   0.04174 1.0455   153.5    25.4    20.5
2023 09 08    21 24 20.2 +13 11 48   0.03526 1.0380   148.7    30.3    20.2
2023 09 09    20 57 26.3 +15 04 01   0.02915 1.0305   141.7    37.3    20.0
...
2023 09 15    13 47 53.1 +10 29 15   0.02554 0.9851    35.2   144.0    25.5
...
2023 09 23    11 58 16.9 +00 30 19   0.07922 0.9245     0.3   179.7
...
2023 10 08    11 34 50.5 -02 02 31   0.1985  0.8151    19.6   155.8    31.9
M. P. C. Staff               (C) Copyright 2023 MPC           M.P.E.C. 2023-R60
    
    
More information about the Iaude
mailing list